Wausa, NE

3:34 PM CST on January 31, 2015 (GMT -0600)
The O'Neill Municipal-Baker | Change Station
CLOSE
Current Station
Airport
Location: O'Neill,
Elevation: 2031 ft
Nearby Weather Stations
Active Advisory: Winter Weather Advisory

Elev 2031 ft 42.47 °N, 98.69 °W | Updated 19 minutes ago

Overcast
Overcast
29 °F
Feels Like 18 °F
N
15
Wind Variable Wind from NNE

Today
High -- | Low -- °F
--% Chance of Precip.
Yesterday
High -- | Low -- °F
Precip. -- in
7:45 AM 5:42 PM
Waxing Gibbous, 91% visible
Pressure 29.96 in
Visibility 3.0 miles
Clouds Overcast 300 ft
Windchill 18 °F
Dew Point 29 °F
Humidity 99%
Rainfall 0.00 in
Snow Depth Not available.
UV 1 out of 12
Pollen .10 out of 12
Air Quality Not available.
Flu Activity Not available.
METAR KONL 312115Z AUTO 03013KT 3SM BR OVC003 M01/M02 A2996 RMK AO2 T10151016

More Conditions Fewer Conditions

Pressure 29.96 in
Visibility 3.0 miles
Clouds Overcast 300 ft
Windchill 18 °F
Dew Point 29 °F
Humidity 99%
Rainfall 0.00 in
Snow Depth Not available.
UV 1 out of 12
Pollen .10 out of 12
Air Quality Not available.
Flu Activity Not available.
METAR KONL 312115Z AUTO 03013KT 3SM BR OVC003 M01/M02 A2996 RMK AO2 T10151016

More Conditions Fewer Conditions

10-Day Weather Forecast

Almanac

Astronomy

Jan. 31, 2015 Rise Set
Actual Time
Civil Twilight
Nautical Twilight
Astronomical Twilight
Moon
Length of Visible Light
Length of Day
Tomorrow will be .
, % of the Moon is Illuminated

Today's Extremes

State Highs State Lows

Community

WunderPhotos

Upload Photos

1,792,210 photos uploaded!

WunderBlogs® & News

Nearby

Air Quality

  Air Quality AQ Index Pollutant
Not available.

Snow Depth

Station Depth Elevation

Earthquake Activity

City Distance Mag. Time & Date
Minimum magnitude displayed is 2.5.

Coastal Water Temperatures

Place Temperature

Nearby Weather Stations